Regional Weather Roundup
Issued by NWS

Home | Current Version | Previous Version | Graphics & Text | Print | Product List | Glossary On
Versions: 1 2 3 4 5 6 7 8 9 10 11 12 13 14 15 16 17 18 19 20 21 22 23 24 25 26 27 28 29 30 31 32 33 34 35 36 37 38 39 40 41 42 43 44 45 46 47 48 49 50
000
ASUS43 KMKX 040100
RWRWI

WISCONSIN REGIONAL WEATHER ROUNDUP
NATIONAL WEATHER SERVICE MILWAUKEE/SULLIVAN WI
800 PM CDT THU SEP 03 2015

NOTE: "FAIR" INDICATES FEW OR NO CLOUDS BELOW 12,000 FEET WITH NO
SIGNIFICANT WEATHER AND/OR OBSTRUCTIONS TO VISIBILITY.

WIZ001-002-006>008-014>016-023>028-040200-
NORTHWEST WISCONSIN

CITY           SKY/WX    TMP DP  RH WIND       PRES   REMARKS
SUPERIOR ARPT  CLEAR     58  56  90 NE7       29.96S
ASHLAND        CLEAR     58  57  97 N3        29.97S
HAYWARD        CLEAR     71  67  87 NE7       29.95R
SIREN          CLEAR     76  68  75 E3        29.92R
CUMBERLAND     CLEAR     72  64  78 E5        29.93S
RICE LAKE      CLEAR     73  67  79 E3        29.94S
CHETEK         CLEAR     74  69  81 SE3       29.93R
LADYSMITH      CLEAR     75  67  76 SE3       29.97R
EAU CLAIRE     CLEAR     73  67  81 E9        29.92R
MENOMONIE      CLEAR     75  69  81 NE7       29.91S
NEW RICHMOND   CLEAR     74  67  78 E6        29.91S
OSCEOLA        CLEAR     76  69  79 E5        29.93R
$$

WIZ003>005-009-010-017-018-040200-
NORTH CENTRAL WISCONSIN

CITY           SKY/WX    TMP DP  RH WIND       PRES   REMARKS
MANITOWISH WTR CLEAR     70  67  89 CALM      29.99R
ARBOR VITAE    CLEAR     72  67  84 CALM      29.99S
WOODRUFF       CLEAR     72  67  84 CALM      29.99S
RHINELANDER    CLEAR     68  62  81 CALM      30.00R
EAGLE RIVER    CLEAR     68  62  81 CALM      29.99S
LAND O LAKES   CLEAR     67  65  91 CALM      30.01R
PHILLIPS       CLEAR     71  65  82 E6        29.97R
TOMAHAWK       CLEAR     69  63  82 CALM      29.99R
MEDFORD        CLEAR     70  66  89 CALM      29.97R
MERRILL        CLEAR     67  66  96 CALM      29.98S
$$

WIZ029-030-035-036-043>047-040200-
CENTRAL WISCONSIN

CITY           SKY/WX    TMP DP  RH WIND       PRES   REMARKS
WAUSAU         CLEAR     70  66  87 CALM      29.95S
MOSINEE        CLEAR     70  66  88 E3        29.97
MARSHFIELD     CLEAR     71  63  75 E5        29.96R
STEVENS POINT  CLEAR     69  65  88 CALM      29.96S
WAUPACA        CLEAR     71  69  93 CALM      29.95S
WAUTOMA        NOT AVBL
WISC RAPIDS    CLEAR     72  64  76 E6        29.96R
CAMP DOUGLAS   NOT AVBL
$$

WIZ011>013-019>022-031-037>040-048>050-040200-
NORTHEAST WISCONSIN

CITY           SKY/WX    TMP DP  RH WIND       PRES   REMARKS
ANTIGO         CLEAR     68  65  88 CALM      29.98S
SHAWANO        NOT AVBL
OCONTO         CLEAR     69  67  92 E3        29.94R
STURGEON BAY   CLEAR     66  61  82 CALM      29.97R
GREEN BAY      CLEAR     69  64  84 NE3       29.94S
MANITOWOC      NOT AVBL
APPLETON       PTCLDY    66  64  94 NW3       29.94S
CLINTONVILLE   CLEAR     70  64  83 CALM      29.94S
OSHKOSH        CLEAR     69  65  86 CALM      29.94S
$$

WIZ032>034-041-042-053>061-040200-
SOUTHWEST WISCONSIN

CITY           SKY/WX    TMP DP  RH WIND       PRES   REMARKS
LA CROSSE      PTCLDY    82  71  69 E8        29.88R HX  86
SPARTA         CLEAR     78  67  68 E6        29.92R HX  81
VIROQUA          N/A     78  73  87 E5        29.92S
BOSCOBEL       CLOUDY    83  76  79 CALM      29.88R HX  91
PRAIRIE DU CHI CLEAR     83  74  72 CALM      29.86S HX  90
PLATTEVILLE    CLEAR     82  74  77 S3        29.90S HX  88
$$

WIZ056-057-062-063-064-067-068-040200-
SOUTH CENTRAL WISCONSIN

CITY           SKY/WX    TMP DP  RH WIND       PRES   REMARKS
REEDSBURG      CLEAR     77  70  77 E8        29.92R
BARABOO/DELLS  CLEAR     74  65  73 E9        29.93R
LONE ROCK      NOT AVBL
MINERAL POINT  PTCLDY    84  72  65 CALM      29.92R HX  89
MADISON        MOCLDY    74  67  78 NE6       29.93R
MIDDLETON      PTCLDY    77  68  74 E6        29.93R
WATERTOWN      MOCLDY    73  70  91 NE6       29.93R
MONROE         PTCLDY    81  73  78 NE7       29.92R HX  85
JANESVILLE     MOCLDY    81  72  74 NE8       29.91R HX  84
$$

WIZ051-052-058>065-066-070>072-040200-
SOUTHEAST WISCONSIN

CITY           SKY/WX    TMP DP  RH WIND       PRES   REMARKS
MILWAUKEE      MOCLDY    65  62  90 NE7       29.94R
WAUKESHA       MOCLDY    75  64  69 N9        29.95R
MILWAUKEE/TIMM CLEAR     68  63  83 NE6       29.95R
RACINE         PTCLDY    67  64  90 N5        29.95R
BURLINGTON     PTCLDY    70  65  83 E7        29.93R
KENOSHA        CLOUDY    69  65  86 E6        29.94R
FOND DU LAC    CLEAR     71  66  84 N5        29.94S
SHEBOYGAN      CLEAR     64  62  93 NE6       29.94S
WEST BEND      PTCLDY    70  63  78 CALM      29.94S
JUNEAU         CLEAR     71  66  84 N7        29.95S
$$

LSZ147-162-040200-
LAKE SUPERIOR

STATION/POSITION TIME  TEMP    WIND        PRES    WAVE
                       AIR SEA DIR/SP/G            HT/PER
                 (UTC) (F)     (DEG/KT/KT) (MB)    (FT/S)
W MID LAKE BUOY  2350   59 57   40/  8/  8 1014.9F   0
DEVILS ISLAND    0000   60      70/  7/  7 1014.9F
PORT WING        0000   59      60/  6/ 11 1014.6R
SAXON HARBOR     0000   63        CALM     1014.2F
$$

LMZ867-665-643>646-040200-
LAKE MICHIGAN

STATION/POSITION TIME  TEMP    WIND        PRES    WAVE
                       AIR SEA DIR/SP/G            HT/PER
                 (UTC) (F)     (DEG/KT/KT) (MB)    (FT/S)
CHAMBERS ISLAND  0000   69     350/  1/  3 1013.9S
S GREEN BAY BUOY 2330   69 67   40/  8/ 10 1015.1S
N MID LAKE BUOY  2350   68 67  340/ 10/ 10 1012.9F   1/ 3
NORTHPORT PIER   0000   70      30/  8/ 11 1013.5S
SISTER BAY       0011   71      40/  2/  5   N/A
ALGOMA LAKESHORE 0014           30/  5/  6   N/A
KEWAUNEE LAKESHO 0000   65      10/  6/  9 1012.8S
SHEBOYGAN LAKESH 0000   61      10/  9/  9 1013.8S
PORT WASHINGTON  0000   61      30/  4/  8 1014.2R
ATWATER BUOY     0000   60     350/  6/  6 1014.7R
MILWAUKEE LAKESH 0010   63      30/  9/ 10   N/A
S MID LAKE BUOY  2350   70 71   10/ 12/ 14 1012.0F   1/ 3
KENOSHA   LAKESH 0000   65     360/  7/ 10 1012.9R
$$

TC  - TEMPERATURE IN CELSIUS
VSB - VISIBILITY IN STATUTE MILES
WCI - WIND CHILL INDEX
HX  - HEAT INDEX



USA.gov is the U.S. government's official web portal to all federal, state and local government web resources and services.